Location: Mat�lon
(46.2791°N, 7.1028°E)
Time: 19:32:50
(UTC+00:00)

Tiangong - Pass Details

Date: 06 October 2021
Orbit: 382 x 384 km, 41.5° (Epoch: 20 October)

Event Time Altitude Azimuth Distance (km) Brightness Sun altitude
Exits shadow 03:42:17 19° 158° (SSE) 994 3.2 -20.4°
Drops below altitude 10° 03:43:38 10° 138° (SE) 1,394 4.2 -20.2°
Sets 03:45:55 0° 124° (SE) 2,244 5.6 -19.8°
